Weather History for Ely, MN

Change the Weather History Date:

Tuesday, September 10, 2013

  Actual Average Record
Temperature  
Mean Temperature 63 °F -  
Max Temperature 71 °F 67 °F 86 °F (2005)
Min Temperature 55 °F 46 °F 30 °F (2006)
Degree Days  
Heating Degree Days 2    
Growing Degree Days 13 (Base 50)    
Moisture  
Dew Point 61 °F    
Average Humidity 91    
Maximum Humidity 100    
Minimum Humidity 69    
Precipitation  
Precipitation 0.15 in - - ()
Sea Level Pressure  
Sea Level Pressure 29.82 in    
Wind  
Wind Speed 3 mph (West)    
Max Wind Speed 12 mph    
Max Gust Speed 20 mph    
Visibility 8 miles    
Events Rain    
Averages and records for this station are not official NWS values.
T = Trace of Precipitation, MM = Missing Value Source: NWS Daily Summary

Daily Weather History Graph

Daily Weather History Graph

Search for Another Location

Airport:

Trip Planner

Search our weather history database for the weather conditions in past years. The results will help you decide how hot, cold, wet, or windy it might be!

Date:

Astronomy

Sep. 10, 2013 Rise Set
Actual Time 6:38 AM CDT 7:29 PM CDT
Civil Twilight 6:06 AM CDT 8:00 PM CDT
Nautical Twilight 5:29 AM CDT 8:37 PM CDT
Astronomical Twilight 4:49 AM CDT 9:17 PM CDT
Moon 12:30 PM CDT (9/10) 10:05 PM CDT (9/10)
Length of Visible Light 13h 53m
Length of Day
12h 51m
Waxing Crescent, 28% of the Moon is Illuminated
Sep 10
Waxing Crescent
Sep 12
First Quarter
Sep 19
Full
Sep 26
Last Quarter
Oct 4
New

Hourly Weather History & Observations

Time (CDT) Temp. Dew Point Humidity Pressure Visibility Wind Dir Wind Speed Gust Speed Precip Events Conditions
12:13 AM 62.6 °F 62.6 °F 100% 29.71 in 7.0 mi Calm Calm - N/A   Overcast
12:32 AM 62.6 °F 62.6 °F 100% 29.70 in 7.0 mi Calm Calm - N/A   Overcast
12:53 AM 62.6 °F 62.6 °F 100% 29.71 in 7.0 mi Calm Calm - N/A   Overcast
1:13 AM 64.4 °F 62.6 °F 94% 29.71 in 7.0 mi Calm Calm - N/A   Overcast
1:32 AM 64.4 °F 62.6 °F 94% 29.71 in 4.0 mi Calm Calm - N/A Rain Rain
1:53 AM 64.4 °F 62.6 °F 94% 29.71 in 5.0 mi Calm Calm - 0.01 in Rain Rain
2:12 AM 64.4 °F 62.6 °F 94% 29.71 in 3.0 mi Calm Calm - 0.01 in Rain Heavy Rain
2:33 AM 64.4 °F 62.6 °F 94% 29.71 in 3.0 mi Calm Calm - 0.02 in Rain Heavy Rain
2:53 AM 64.4 °F 62.6 °F 94% 29.72 in 7.0 mi Calm Calm - 0.03 in   Light Drizzle
3:12 AM 64.4 °F 62.6 °F 94% 29.72 in 7.0 mi Calm Calm - N/A Rain Rain
3:33 AM 64.4 °F 62.6 °F 94% 29.72 in 5.0 mi Calm Calm - 0.01 in   Overcast
3:53 AM 64.4 °F 62.6 °F 94% 29.72 in 3.0 mi Calm Calm - 0.02 in   Overcast
4:12 AM 64.4 °F 62.6 °F 94% 29.72 in 7.0 mi SSW 4.6 mph - 0.01 in   Overcast
4:33 AM 64.4 °F 62.6 °F 94% 29.73 in 2.5 mi WSW 4.6 mph - 0.02 in Rain Rain
4:53 AM 64.4 °F 64.4 °F 100% 29.73 in 5.0 mi West 6.9 mph - 0.03 in   Drizzle
5:12 AM 64.4 °F 64.4 °F 100% 29.74 in 7.0 mi West 4.6 mph - N/A   Light Drizzle
5:33 AM 64.4 °F 64.4 °F 100% 29.74 in 10.0 mi West 6.9 mph - 0.01 in   Overcast
5:53 AM 64.4 °F 64.4 °F 100% 29.75 in 10.0 mi West 6.9 mph - 0.01 in   Overcast
6:12 AM 64.4 °F 62.6 °F 94% 29.75 in 10.0 mi West 8.1 mph - 0.01 in   Overcast
6:33 AM 64.4 °F 62.6 °F 94% 29.76 in 10.0 mi West 8.1 mph - 0.01 in   Overcast
6:53 AM 64.4 °F 62.6 °F 94% 29.77 in 10.0 mi West 5.8 mph - 0.01 in   Mostly Cloudy
7:12 AM 64.4 °F 62.6 °F 94% 29.77 in 10.0 mi West 8.1 mph - N/A Rain Light Rain
7:33 AM 62.6 °F 62.6 °F 100% 29.78 in 10.0 mi West 9.2 mph - N/A   Overcast
7:52 AM 62.6 °F 60.8 °F 94% 29.79 in 4.0 mi WSW 9.2 mph - N/A   Overcast
8:13 AM 62.6 °F 60.8 °F 94% 29.80 in 4.0 mi West 9.2 mph - N/A Rain Light Rain
8:32 AM 62.6 °F 60.8 °F 94% 29.80 in 1.5 mi West 8.1 mph - 0.01 in   Drizzle
8:53 AM 62.6 °F 60.8 °F 94% 29.80 in 1.8 mi WSW 11.5 mph - 0.01 in   Light Drizzle
9:13 AM 62.6 °F 60.8 °F 94% 29.80 in 10.0 mi WNW 8.1 mph - N/A   Overcast
9:32 AM 62.6 °F 60.8 °F 94% 29.80 in 10.0 mi West 6.9 mph - N/A   Overcast
9:53 AM 62.6 °F 60.8 °F 94% 29.81 in 5.0 mi West 6.9 mph - N/A   Overcast
10:13 AM 64.4 °F 60.8 °F 88% 29.81 in 10.0 mi West 8.1 mph - N/A   Overcast
10:32 AM 64.4 °F 60.8 °F 88% 29.82 in 10.0 mi West 9.2 mph - N/A   Overcast
10:53 AM 62.6 °F 60.8 °F 94% 29.82 in 4.0 mi West 8.1 mph - N/A Rain Rain
11:13 AM 64.4 °F 60.8 °F 88% 29.83 in 10.0 mi West 8.1 mph - N/A   Overcast
11:33 AM 64.4 °F 60.8 °F 88% 29.83 in 10.0 mi West 5.8 mph - N/A   Overcast
11:53 AM 62.6 °F 60.8 °F 94% 29.84 in 2.0 mi West 6.9 mph - N/A Rain Rain
12:13 PM 64.4 °F 62.6 °F 94% 29.84 in 7.0 mi West 8.1 mph - N/A   Overcast
12:32 PM 64.4 °F 62.6 °F 94% 29.84 in 4.0 mi West 5.8 mph - N/A Rain Light Rain
12:53 PM 66.2 °F 62.6 °F 88% 29.84 in 10.0 mi West 5.8 mph - N/A   Overcast
1:13 PM 66.2 °F 60.8 °F 83% 29.85 in 10.0 mi West 8.1 mph - N/A   Overcast
1:32 PM 68.0 °F 60.8 °F 78% 29.85 in 10.0 mi WSW 9.2 mph - N/A   Overcast
1:53 PM 71.6 °F 62.6 °F 73% 29.85 in 10.0 mi SW 8.1 mph - N/A   Overcast
2:13 PM 69.8 °F 62.6 °F 78% 29.84 in 10.0 mi WSW 5.8 mph - N/A   Mostly Cloudy
2:32 PM 68.0 °F 62.6 °F 83% 29.85 in 7.0 mi West 6.9 mph - N/A   Mostly Cloudy
2:53 PM 66.2 °F 62.6 °F 88% 29.84 in 10.0 mi West 4.6 mph - 0.01 in Rain Light Rain
3:13 PM 71.6 °F 62.6 °F 73% 29.84 in 10.0 mi WSW 5.8 mph - N/A   Scattered Clouds
3:32 PM 69.8 °F 60.8 °F 73% 29.84 in 10.0 mi West 9.2 mph 19.6 mph 0.01 in   Scattered Clouds
3:53 PM 69.8 °F 60.8 °F 73% 29.85 in 10.0 mi SW 9.2 mph - 0.01 in   Scattered Clouds
4:13 PM 68.0 °F 62.6 °F 83% 29.85 in 10.0 mi SW 5.8 mph - 0.01 in   Mostly Cloudy
4:32 PM 71.6 °F 62.6 °F 73% 29.84 in 10.0 mi SW 5.8 mph - 0.01 in   Scattered Clouds
4:53 PM 71.6 °F 60.8 °F 69% 29.84 in 10.0 mi WSW 6.9 mph - 0.01 in   Clear
5:13 PM 69.8 °F 62.6 °F 78% 29.85 in 10.0 mi NNW 5.8 mph - N/A   Scattered Clouds
5:32 PM 66.2 °F 60.8 °F 83% 29.86 in 10.0 mi NNW 3.5 mph - N/A   Mostly Cloudy
5:53 PM 69.8 °F 60.8 °F 73% 29.86 in 10.0 mi North 3.5 mph - N/A   Scattered Clouds
6:13 PM 66.2 °F 60.8 °F 83% 29.86 in 10.0 mi North 5.8 mph - N/A   Scattered Clouds
6:32 PM 66.2 °F 60.8 °F 83% 29.87 in 10.0 mi Calm Calm - N/A Rain Light Rain
6:53 PM 64.4 °F 60.8 °F 88% 29.87 in 10.0 mi Calm Calm - N/A   Scattered Clouds
7:13 PM 64.4 °F 60.8 °F 88% 29.88 in 10.0 mi Calm Calm - N/A   Scattered Clouds
7:32 PM 62.6 °F 60.8 °F 94% 29.88 in 10.0 mi Calm Calm - N/A   Clear
7:53 PM 60.8 °F 60.8 °F 100% 29.89 in 10.0 mi Calm Calm - N/A   Clear
8:13 PM 60.8 °F 59.0 °F 94% 29.89 in 10.0 mi Calm Calm - N/A   Clear
8:32 PM 59.0 °F 57.2 °F 94% 29.90 in 10.0 mi Calm Calm - N/A   Clear
8:53 PM 59.0 °F 57.2 °F 94% 29.91 in 3.0 mi Calm Calm - N/A   Clear
9:13 PM 59.0 °F 57.2 °F 94% 29.91 in 10.0 mi Calm Calm - N/A   Clear
9:32 PM 57.2 °F 55.4 °F 94% 29.91 in 10.0 mi Calm Calm - N/A   Clear
9:53 PM 57.2 °F 57.2 °F 100% 29.91 in 10.0 mi Calm Calm - N/A   Clear
10:13 PM 57.2 °F 55.4 °F 94% 29.91 in 10.0 mi Calm Calm - N/A   Clear
10:32 PM 55.4 °F 55.4 °F 100% 29.91 in 5.0 mi Calm Calm - N/A   Clear
10:53 PM 55.4 °F 55.4 °F 100% 29.91 in 7.0 mi Calm Calm - N/A   Clear
11:12 PM 55.4 °F 53.6 °F 94% 29.91 in 10.0 mi Calm Calm - N/A   Clear
11:32 PM 55.4 °F 53.6 °F 94% 29.91 in 10.0 mi Calm Calm - N/A   Clear
11:53 PM 57.2 °F 55.4 °F 94% 29.91 in 10.0 mi Calm Calm - N/A   Clear